Weather History for Buffalo, NY

Change the Weather History Date:

Saturday, April 6, 2013

  Actual Average Record
Temperature  
Mean Temperature 37 °F 42 °F  
Max Temperature 51 °F 51 °F 78 °F (1928)
Min Temperature 23 °F 33 °F 15 °F (1982)
Degree Days  
Heating Degree Days 28 23  
Month to date heating degree days 184 144  
Since 1 July heating degree days 5490 5849  
Cooling Degree Days 0 0  
Month to date cooling degree days 0 0  
Year to date cooling degree days 0 0  
Moisture  
Dew Point 16 °F    
Average Humidity 47    
Maximum Humidity 74    
Minimum Humidity 19    
Precipitation  
Precipitation T in 0.10 in 1.22 in (1886)
Month to date precipitation 0.01 0.62  
Year to date precipitation 6.62 9.16  
Snow  
Snow 0.00 in 0.10 in 7.30 in (1886)
Month to date snowfall 0.3 1.0  
Since 1 July snowfall 58.8 92.7  
Snow Depth 0.00 in    
Sea Level Pressure  
Sea Level Pressure 30.21 in    
Wind  
Wind Speed 5 mph (SE)    
Max Wind Speed 14 mph    
Max Gust Speed 20 mph    
Visibility 10 miles    
Events Rain    
T = Trace of Precipitation, MM = Missing Value Source: NWS Daily Summary

Daily Weather History Graph

Daily Weather History Graph

Search for Another Location

Airport:

Trip Planner

Search our weather history database for the weather conditions in past years. The results will help you decide how hot, cold, wet, or windy it might be!

Date:

Astronomy

Apr. 06, 2013 Rise Set
Actual Time 6:47 AM EDT 7:47 PM EDT
Civil Twilight 6:19 AM EDT 8:16 PM EDT
Nautical Twilight 5:44 AM EDT 8:50 PM EDT
Astronomical Twilight 5:08 AM EDT 9:26 PM EDT
Moon 4:36 AM EDT (4/6) 4:09 PM EDT (4/6)
Length of Visible Light 13h 57m
Length of Day
12h 59m
Waning Crescent, 15% of the Moon is Illuminated
Apr 6
Waning Crescent
Apr 10
New
Apr 18
First Quarter
Apr 25
Full
May 2
Last Quarter

Hourly Weather History & Observations

Time (EDT) Temp. Windchill Dew Point Humidity Pressure Visibility Wind Dir Wind Speed Gust Speed Precip Events Conditions
12:54 AM 28.0 °F 22.8 °F 16.0 °F 61% 30.21 in 10.0 mi North 4.6 mph - N/A   Clear
1:54 AM 28.0 °F 24.2 °F 16.0 °F 61% 30.23 in 10.0 mi North 3.5 mph - N/A   Clear
2:54 AM 28.0 °F - 15.1 °F 58% 30.25 in 10.0 mi Calm Calm - N/A   Partly Cloudy
3:54 AM 27.0 °F - 16.0 °F 63% 30.25 in 10.0 mi Calm Calm - N/A   Partly Cloudy
4:54 AM 25.0 °F - 16.0 °F 69% 30.26 in 10.0 mi Calm Calm - N/A   Partly Cloudy
5:54 AM 25.0 °F - 16.0 °F 69% 30.28 in 10.0 mi Calm Calm - N/A   Partly Cloudy
6:54 AM 24.1 °F - 16.0 °F 71% 30.30 in 10.0 mi Calm Calm - N/A   Partly Cloudy
7:54 AM 25.0 °F 20.7 °F 18.0 °F 75% 30.32 in 10.0 mi South 3.5 mph - N/A   Clear
8:54 AM 30.0 °F - 19.9 °F 66% 30.33 in 10.0 mi Calm Calm - N/A   Scattered Clouds
9:54 AM 33.1 °F 26.9 °F 19.0 °F 56% 30.32 in 10.0 mi SE 6.9 mph - N/A   Scattered Clouds
10:54 AM 36.0 °F 33.3 °F 15.1 °F 43% 30.33 in 10.0 mi SSE 3.5 mph - N/A   Scattered Clouds
11:54 AM 39.0 °F 34.0 °F 16.0 °F 39% 30.31 in 10.0 mi ESE 6.9 mph 16.1 mph N/A   Scattered Clouds
12:54 PM 41.0 °F 36.4 °F 17.1 °F 38% 30.30 in 10.0 mi SSW 6.9 mph - N/A   Mostly Cloudy
1:54 PM 44.1 °F 40.1 °F 17.1 °F 34% 30.26 in 10.0 mi East 6.9 mph - N/A   Mostly Cloudy
2:54 PM 46.9 °F - 18.0 °F 32% 30.23 in 10.0 mi ESE 8.1 mph - N/A   Mostly Cloudy
3:54 PM 48.0 °F - 16.0 °F 28% 30.19 in 10.0 mi ESE 8.1 mph - N/A   Mostly Cloudy
4:54 PM 48.9 °F - 15.1 °F 26% 30.16 in 10.0 mi Variable 5.8 mph - N/A   Mostly Cloudy
5:54 PM 51.1 °F - 10.9 °F 20% 30.14 in 10.0 mi SSE 8.1 mph - N/A   Mostly Cloudy
6:54 PM 51.1 °F - 12.0 °F 21% 30.13 in 10.0 mi South 9.2 mph - N/A   Overcast
7:54 PM 50.0 °F - 12.0 °F 22% 30.11 in 10.0 mi SE 4.6 mph - N/A   Overcast
8:54 PM 48.9 °F - 15.1 °F 26% 30.09 in 10.0 mi ESE 5.8 mph - 0.00 in Rain Light Rain
9:54 PM 48.0 °F - 16.0 °F 28% 30.06 in 10.0 mi ESE 8.1 mph - 0.00 in   Overcast
10:54 PM 46.9 °F - 17.1 °F 30% 30.05 in 10.0 mi ESE 3.5 mph - N/A   Overcast
11:54 PM 46.9 °F - 16.0 °F 29% 30.01 in 10.0 mi SE 4.6 mph - N/A   Overcast